Simultaneous Nadir Overpasses (SNOs) Predictions

Prediction of SNOs between LANDSAT-8 and METOP-B Satellite Orbit:

Table of predicted SNOs for the next 14.0 days since TLE Epoch: 10/10/2016
Index Date (LANDSAT-8) Time (LANDSAT-8) Lat,Lon (LANDSAT-8) SZA (LANDSAT-8 ) Date (METOP-B) Time (METOP-B) Lat,Lon (METOP-B) SZA (METOP-B ) Distance(km) Time Diff (sec)
1 10/11/2016 20:49:02 81.05, -93.31 90.75 10/11/2016 20:47:53 81.06, -93.36 90.72 1.02 69
2 10/11/2016 21:38:27 -81.10, 75.00 89.14 10/11/2016 21:38:31 -81.10, 74.98 89.14 0.55 4
3 10/14/2016 16:23:16 81.08, -26.49 91.87 10/14/2016 16:22:14 81.08, -26.38 91.85 1.83 62
4 10/14/2016 17:12:42 -81.10, 141.48 88.07 10/14/2016 17:12:53 -81.10, 141.59 88.06 1.86 11
5 10/17/2016 11:57:32 81.08, 39.93 92.91 10/17/2016 11:56:38 81.07, 39.83 92.87 1.73 54
6 10/17/2016 12:46:58 -81.10,-152.08 87.03 10/17/2016 12:47:17 -81.10,-152.19 87.04 1.95 19
7 10/20/2016 07:31:48 81.07, 106.29 93.92 10/20/2016 07:31:01 81.08, 106.40 93.92 1.99 47
8 10/20/2016 08:21:14 -81.10, -85.70 86.01 10/20/2016 08:21:40 -81.10, -85.61 85.99 1.49 26
9 10/23/2016 03:06:03 81.07, 172.61 94.90 10/23/2016 03:05:24 81.07, 172.58 94.89 0.66 39




NCC Satellite Simultaneous Nadir Overpasses (SNOs) Prediction Service
